Pontoon, Arkansas
Current Conditions -  °F | °C
As of 5:17 AM on Tuesday 21 Oct 2014 (Local Time) from KRUE Reporting Station
Haze Haze  
Wind Chill: 52°   Ceiling: Unl
Heat Index: 52°   Visibility: 2.5mi
Dew Point: 51°   Wind: 0mph
Humidity: 97%   Direction: NA
Pressure: 30.07"   Gusts: NA
Location:  35.031°N, 93.0373°W
Report Text: KRUE 211017Z AUTO 00000KT 2 1/2SM BR FEW005 11/11 A3007 RMK AO2 T01110106
Loading
Personal Weather Stations






























Interactive Weather Map
Tropical Storm Tracking
New forecast layout! Learn more

10-Day Weather Forecast

Advertisements
Track Severe Weather on mobile